Time,TemperatureF,DewpointF,PressureIn,WindDirection,WindDirectionDegrees,WindSpeedMPH,WindSpeedGustMPH,Humidity,HourlyPrecipIn,Conditions,Clouds,dailyrainin,SoftwareType,DateUTC
2013-07-06 00:01:00,65.0,45.0,-100.00,ESE,109,0.0,1.0,48,-99.99,,,-99.99,,2013-07-06 07:01:00,
2013-07-06 00:12:00,65.0,45.0,-100.00,ESE,113,1.0,1.0,48,-99.99,,,-99.99,,2013-07-06 07:12:00,
2013-07-06 00:22:00,65.0,45.0,-100.00,ESE,113,1.0,1.0,48,-99.99,,,-99.99,,2013-07-06 07:22:00,
2013-07-06 01:21:00,64.0,47.0,-100.00,ESE,119,0.0,1.0,54,-99.99,,,-99.99,,2013-07-06 08:21:00,
2013-07-06 01:43:00,62.0,43.0,-100.00,ESE,117,0.0,1.0,50,-99.99,,,-99.99,,2013-07-06 08:43:00,
2013-07-06 02:22:00,62.0,44.0,-100.00,ESE,116,0.0,1.0,52,-99.99,,,-99.99,,2013-07-06 09:22:00,
2013-07-06 03:11:00,65.0,45.0,-100.00,ESE,117,0.0,1.0,48,-99.99,,,-99.99,,2013-07-06 10:11:00,
2013-07-06 03:22:00,64.0,44.0,-100.00,ESE,117,0.0,1.0,48,-99.99,,,-99.99,,2013-07-06 10:22:00,
2013-07-06 03:42:00,62.0,41.0,-100.00,ESE,117,1.0,1.0,46,-99.99,,,-99.99,,2013-07-06 10:42:00,
2013-07-06 04:11:00,62.0,39.0,-100.00,ESE,117,0.0,1.0,43,-99.99,,,-99.99,,2013-07-06 11:11:00,
2013-07-06 04:21:00,62.0,38.0,-100.00,ESE,117,0.0,1.0,41,-99.99,,,-99.99,,2013-07-06 11:21:00,
2013-07-06 04:42:00,62.0,37.0,-100.00,ESE,116,0.0,1.0,40,-99.99,,,-99.99,,2013-07-06 11:42:00,
2013-07-06 05:21:00,62.0,39.0,-100.00,ESE,116,0.0,1.0,42,-99.99,,,-99.99,,2013-07-06 12:21:00,
2013-07-06 05:52:00,62.0,35.0,-100.00,ESE,117,1.0,1.0,37,-99.99,,,-99.99,,2013-07-06 12:52:00,
2013-07-06 06:01:00,62.0,35.0,-100.00,ESE,117,1.0,1.0,37,-99.99,,,-99.99,,2013-07-06 13:01:00,
2013-07-06 06:11:00,62.0,37.0,-100.00,ESE,117,0.0,1.0,40,-99.99,,,-99.99,,2013-07-06 13:11:00,
2013-07-06 06:22:00,61.0,41.0,-100.00,East,101,0.0,1.0,47,-99.99,,,-99.99,,2013-07-06 13:22:00,
2013-07-06 06:33:00,61.0,42.0,-100.00,ESE,112,1.0,2.0,50,-99.99,,,-99.99,,2013-07-06 13:33:00,
2013-07-06 06:43:00,62.0,43.0,-100.00,ESE,118,0.0,1.0,49,-99.99,,,-99.99,,2013-07-06 13:43:00,
2013-07-06 06:52:00,62.0,43.0,-100.00,ESE,117,0.0,1.0,49,-99.99,,,-99.99,,2013-07-06 13:52:00,
2013-07-06 07:11:00,63.0,42.0,-100.00,ESE,105,1.0,1.0,46,-99.99,,,-99.99,,2013-07-06 14:11:00,
2013-07-06 07:34:00,64.0,41.0,-100.00,ESE,112,0.0,1.0,43,-99.99,,,-99.99,,2013-07-06 14:34:00,
2013-07-06 07:42:00,66.0,39.0,-100.00,ESE,109,1.0,1.0,37,-99.99,,,-99.99,,2013-07-06 14:42:00,
2013-07-06 07:53:00,66.0,39.0,-100.00,ESE,109,1.0,1.0,37,-99.99,,,-99.99,,2013-07-06 14:53:00,
2013-07-06 08:22:00,74.0,45.0,-100.00,South,178,1.0,2.0,36,-99.99,,,-99.99,,2013-07-06 15:22:00,
2013-07-06 08:52:00,78.0,44.0,-100.00,NNE,15,1.0,2.0,30,-99.99,,,-99.99,,2013-07-06 15:52:00,
2013-07-06 09:12:00,80.0,43.0,-100.00,East,88,1.0,2.0,27,-99.99,,,-99.99,,2013-07-06 16:12:00,
2013-07-06 09:22:00,81.0,44.0,-100.00,ESE,116,2.0,5.0,27,-99.99,,,-99.99,,2013-07-06 16:22:00,
2013-07-06 09:55:00,77.0,45.0,-100.00,North,1,1.0,3.0,32,-99.99,,,-99.99,,2013-07-06 16:55:00,
2013-07-06 10:44:00,81.0,46.0,-100.00,ESE,118,1.0,5.0,29,-99.99,,,-99.99,,2013-07-06 17:44:00,
2013-07-06 11:14:00,79.0,46.0,-100.00,NE,52,1.0,5.0,31,-99.99,,,-99.99,,2013-07-06 18:14:00,
2013-07-06 12:13:00,80.0,46.0,-100.00,NNE,19,1.0,3.0,30,-99.99,,,-99.99,,2013-07-06 19:13:00,
2013-07-06 12:24:00,82.0,47.0,-100.00,ENE,61,2.0,6.0,29,-99.99,,,-99.99,,2013-07-06 19:24:00,
2013-07-06 12:45:00,83.0,47.0,-100.00,NNE,17,2.0,5.0,28,-99.99,,,-99.99,,2013-07-06 19:45:00,
2013-07-06 12:54:00,82.0,46.0,-100.00,North,0,2.0,4.0,28,-99.99,,,-99.99,,2013-07-06 19:54:00,
2013-07-06 13:25:00,81.0,46.0,-100.00,ENE,67,2.0,6.0,29,-99.99,,,-99.99,,2013-07-06 20:25:00,
2013-07-06 13:55:00,83.0,46.0,-100.00,ENE,63,2.0,10.0,27,-99.99,,,-99.99,,2013-07-06 20:55:00,
2013-07-06 14:14:00,83.0,46.0,-100.00,NE,48,2.0,5.0,27,-99.99,,,-99.99,,2013-07-06 21:14:00,
2013-07-06 14:24:00,82.0,45.0,-100.00,North,357,2.0,8.0,27,-99.99,,,-99.99,,2013-07-06 21:24:00,
2013-07-06 15:13:00,82.0,46.0,-100.00,NE,41,1.0,6.0,28,-99.99,,,-99.99,,2013-07-06 22:13:00,
2013-07-06 15:45:00,83.0,46.0,-100.00,North,7,1.0,4.0,27,-99.99,,,-99.99,,2013-07-06 22:45:00,
2013-07-06 16:13:00,83.0,46.0,-100.00,NE,34,2.0,7.0,27,-99.99,,,-99.99,,2013-07-06 23:13:00,
2013-07-06 16:23:00,83.0,46.0,-100.00,North,9,2.0,6.0,27,-99.99,,,-99.99,,2013-07-06 23:23:00,
2013-07-06 17:14:00,83.0,47.0,-100.00,West,263,1.0,3.0,28,-99.99,,,-99.99,,2013-07-07 00:14:00,
2013-07-06 17:35:00,82.0,47.0,-100.00,North,356,2.0,5.0,29,-99.99,,,-99.99,,2013-07-07 00:35:00,
2013-07-06 18:13:00,77.0,46.0,-100.00,SW,216,1.0,2.0,33,-99.99,,,-99.99,,2013-07-07 01:13:00,
2013-07-06 18:22:00,77.0,45.0,-100.00,WSW,257,1.0,3.0,32,-99.99,,,-99.99,,2013-07-07 01:22:00,
2013-07-06 18:43:00,77.0,43.0,-100.00,WNW,293,1.0,2.0,30,-99.99,,,-99.99,,2013-07-07 01:43:00,
2013-07-06 18:54:00,77.0,44.0,-100.00,SW,234,1.0,3.0,31,-99.99,,,-99.99,,2013-07-07 01:54:00,
2013-07-06 19:12:00,76.0,46.0,-100.00,WSW,242,1.0,2.0,35,-99.99,,,-99.99,,2013-07-07 02:12:00,
2013-07-06 19:42:00,74.0,48.0,-100.00,SSW,194,1.0,2.0,40,-99.99,,,-99.99,,2013-07-07 02:42:00,
2013-07-06 20:02:00,72.0,49.0,-100.00,South,169,0.0,1.0,44,-99.99,,,-99.99,,2013-07-07 03:02:00,
2013-07-06 20:12:00,71.0,49.0,-100.00,SSE,155,1.0,1.0,46,-99.99,,,-99.99,,2013-07-07 03:12:00,
2013-07-06 20:22:00,70.0,49.0,-100.00,SE,145,1.0,1.0,47,-99.99,,,-99.99,,2013-07-07 03:22:00,
2013-07-06 20:42:00,69.0,49.0,-100.00,SE,125,1.0,2.0,49,-99.99,,,-99.99,,2013-07-07 03:42:00,
2013-07-06 21:01:00,67.0,46.0,-100.00,ESE,123,1.0,1.0,46,-99.99,,,-99.99,,2013-07-07 04:01:00,
2013-07-06 21:11:00,66.0,44.0,-100.00,ESE,117,0.0,1.0,45,-99.99,,,-99.99,,2013-07-07 04:11:00,
2013-07-06 21:21:00,66.0,42.0,-100.00,ESE,116,1.0,2.0,42,-99.99,,,-99.99,,2013-07-07 04:21:00,
2013-07-06 21:41:00,65.0,38.0,-100.00,ESE,117,0.0,1.0,37,-99.99,,,-99.99,,2013-07-07 04:41:00,
2013-07-06 21:51:00,65.0,37.0,-100.00,ESE,117,1.0,1.0,36,-99.99,,,-99.99,,2013-07-07 04:51:00,
2013-07-06 22:01:00,65.0,35.0,-100.00,ESE,113,1.0,2.0,33,-99.99,,,-99.99,,2013-07-07 05:01:00,
2013-07-06 22:11:00,65.0,35.0,-100.00,ESE,118,1.0,1.0,33,-99.99,,,-99.99,,2013-07-07 05:11:00,
2013-07-06 22:21:00,64.0,33.0,-100.00,SE,127,0.0,1.0,31,-99.99,,,-99.99,,2013-07-07 05:21:00,
2013-07-06 22:31:00,64.0,32.0,-100.00,SE,125,0.0,1.0,30,-99.99,,,-99.99,,2013-07-07 05:31:00,
2013-07-06 22:41:00,64.0,31.0,-100.00,ESE,122,1.0,1.0,29,-99.99,,,-99.99,,2013-07-07 05:41:00,
2013-07-06 22:51:00,64.0,31.0,-100.00,ESE,118,0.0,1.0,29,-99.99,,,-99.99,,2013-07-07 05:51:00,
2013-07-06 23:01:00,64.0,31.0,-100.00,ESE,118,0.0,1.0,29,-99.99,,,-99.99,,2013-07-07 06:01:00,
2013-07-06 23:11:00,63.0,31.0,-100.00,ESE,118,0.0,1.0,30,-99.99,,,-99.99,,2013-07-07 06:11:00,
2013-07-06 23:21:00,63.0,30.0,-100.00,ESE,118,0.0,1.0,29,-99.99,,,-99.99,,2013-07-07 06:21:00,
2013-07-06 23:43:00,63.0,29.0,-100.00,ESE,118,0.0,1.0,28,-99.99,,,-99.99,,2013-07-07 06:43:00,
2013-07-06 23:52:00,64.0,26.0,-100.00,ESE,116,1.0,2.0,24,-99.99,,,-99.99,,2013-07-07 06:52:00,